FW8526 Weather Reports


time (UTC)temp
C
wind
direction
speed
KPH
gust
KPH
rain 1hr
cm
rain 24hr
cm
rain mn
cm
humidity
%
barometer
mb
20260906225827 20 345 17.7 25.7 0.00 0.00 0.00 67 1015.3
20260906225728 20 338 14.5 19.3 0.00 0.00 0.00 67 1015.4
20260906225717 21 320 8.0 17.7 0.00 0.00 0.00 67 1015.3
20260906225213 21 330 12.9 19.3 0.00 0.00 0.00 66 1015.2
20260906224728 20 316 8.0 9.7 0.00 0.00 0.00 66 1015.4
20260906224708 21 332 12.9 20.9 0.00 0.00 0.00 66 1015.2
20260906224629 20 332 11.3 19.3 0.00 0.00 0.00 66 1015.3
20260906224204 21 337 19.3 24.1 0.00 0.00 0.00 65 1015.1
20260906223700 21 327 14.5 19.3 0.00 0.00 0.00 64 1015.1
20260906223155 21 304 6.4 11.3 0.00 0.00 0.00 62 1015.1
20260906222653 22 312 6.4 16.1 0.00 0.00 0.00 62 1015.1
20260906222152 22 308 4.8 9.7 0.00 0.00 0.00 62 1015.1
20260906221826 21 323 6.4 9.7 0.00 0.00 0.00 62 1015.3
20260906221650 22 294 3.2 6.4 0.00 0.00 0.00 62 1015.2
20260906221144 22 324 9.7 14.5 0.00 0.00 0.00 62 1015.2
20260906220828 22 322 9.7 16.1 0.00 0.00 0.00 62 1015.2
20260906220640 22 316 4.8 8.0 0.00 0.00 0.00 62 1015.2
20260906220136 22 308 8.0 14.5 0.00 0.00 0.00 61 1015.1
20260906215927 21 329 11.3 16.1 0.00 0.00 0.00 62 1015.3
20260906215634 22 316 8.0 16.1 0.00 0.00 0.00 61 1015.3
20260906215133 22 339 9.7 14.5 0.00 0.00 0.00 61 1015.2
20260906215027 21 17 9.7 14.5 0.00 0.00 0.00 61 1015.3
20260906214632 22 312 4.8 8.0 0.00 0.00 0.00 61 1015.2
20260906214127 22 265 8.0 12.9 0.00 0.00 0.00 61 1015.2
20260906214028 22 273 8.0 12.9 0.00 0.00 0.00 61 1015.5
20260906213626 22 270 1.6 3.2 0.00 0.00 0.00 63 1015.5
20260906213120 21 322 4.8 8.0 0.00 0.00 0.00 64 1015.4
20260906213030 21 322 4.8 6.4 0.00 0.00 0.00 64 1015.6
20260906212618 21 360 9.7 14.5 0.00 0.00 0.00 65 1015.5
20260906212126 20 328 1.6 4.8 0.00 0.00 0.00 65 1015.7
20260906212114 21 315 4.8 11.3 0.00 0.00 0.00 66 1015.5
20260906211613 20 359 8.0 11.3 0.00 0.00 0.00 66 1015.5
20260906211109 20 336 8.0 12.9 0.00 0.00 0.00 68 1015.5
20260906210604 20 323 6.4 16.1 0.00 0.00 0.00 68 1015.5
20260906210059 20 323 11.3 17.7 0.00 0.00 0.00 69 1015.7
20260906205554 20 45 9.7 11.3 0.00 0.00 0.00 69 1015.7
20260906205227 19 46 9.7 12.9 0.00 0.00 0.00 70 1016.0
20260906205128 19 36 11.3 14.5 0.00 0.00 0.00 70 1016.0
20260906205051 20 37 11.3 16.1 0.00 0.00 0.00 70 1015.8
20260906204549 19 2 12.9 16.1 0.00 0.00 0.00 71 1015.8
20260906204226 18 3 14.5 20.9 0.00 0.00 0.00 72 1016.0
20260906204045 18 359 12.9 17.7 0.00 0.00 0.00 73 1015.9
20260906203544 18 45 12.9 16.1 0.00 0.00 0.00 73 1015.9
20260906203227 18 12 14.5 17.7 0.00 0.00 0.00 74 1016.2
20260906203039 18 9 14.5 20.9 0.00 0.00 0.00 74 1016.0
20260906202536 18 38 9.7 14.5 0.00 0.00 0.00 75 1016.4
20260906202129 17 11 12.9 17.7 0.00 0.00 0.00 77 1016.4
20260906202030 18 9 19.3 20.9 0.00 0.00 0.00 77 1016.3
20260906201530 17 51 12.9 17.7 0.00 0.00 0.00 78 1016.4
20260906201228 17 37 17.7 22.5 0.00 0.00 0.00 77 1016.4
20260906201030 17 48 17.7 22.5 0.00 0.00 0.00 78 1016.4
20260906200526 17 359 20.9 24.1 0.00 0.00 0.00 80 1016.3
20260906200227 16 360 17.7 24.1 0.00 0.00 0.00 80 1016.4
20260906200022 16 31 19.3 24.1 0.00 0.00 0.00 80 1016.3
20260906195517 16 30 22.5 27.4 0.00 0.00 0.00 81 1016.4
20260906195014 16 46 19.3 24.1 0.00 0.00 0.00 82 1016.5
20260906194509 16 17 20.9 25.7 0.00 0.00 0.00 82 1016.5
20260906194327 15 13 22.5 25.7 0.00 0.00 0.00 81 1016.5
20260906194227 15 22 22.5 27.4 0.00 0.00 0.00 82 1016.6
20260906194005 16 43 27.4 30.6 0.00 0.00 0.00 82 1016.4
20260906193504 16 21 20.9 25.7 0.00 0.00 0.00 83 1016.7
20260906193228 15 20 24.1 29.0 0.00 0.00 0.00 83 1016.8
20260906193129 15 33 22.5 30.6 0.00 0.00 0.00 83 1016.7
20260906193000 16 21 25.7 30.6 0.00 0.00 0.00 82 1016.7
20260906192455 16 10 24.1 27.4 0.00 0.00 0.00 83 1016.9
20260906192226 15 6 22.5 27.4 0.00 0.00 0.00 83 1017.0
20260906191954 16 28 22.5 29.0 0.00 0.00 0.00 82 1016.8
20260906191449 16 17 27.4 33.8 0.00 0.00 0.00 80 1016.9
20260906190948 17 5 27.4 33.8 0.00 0.00 0.00 77 1016.9
20260906190446 18 354 24.1 29.0 0.00 0.00 0.00 76 1017.3
20260906185942 18 279 4.8 8.0 0.00 0.00 0.00 77 1017.1
20260906185441 18 282 4.8 9.7 0.00 0.00 0.00 77 1017.3
20260906184940 17 308 3.2 6.4 0.00 0.00 0.00 78 1017.5
20260906184436 17 264 6.4 11.3 0.00 0.00 0.00 79 1017.5
20260906184229 17 288 4.8 11.3 0.00 0.00 0.00 80 1017.8
20260906183931 17 270 4.8 9.7 0.00 0.00 0.00 80 1017.5
20260906183427 16 261 6.4 9.7 0.00 0.00 0.00 81 1017.7
20260906183326 16 261 4.8 8.0 0.00 0.00 0.00 81 1017.8
20260906182922 16 270 6.4 8.0 0.00 0.00 0.00 81 1017.8
20260906182418 16 270 6.4 8.0 0.00 0.00 0.00 81 1017.9
20260906182329 16 270 4.8 8.0 0.00 0.00 0.00 81 1018.1
20260906181914 16 294 6.4 12.9 0.00 0.00 0.00 80 1018.0
20260906181409 16 265 6.4 9.7 0.00 0.00 0.00 80 1017.9
20260906181327 16 265 4.8 8.0 0.00 0.00 0.00 80 1018.1
20260906180905 16 267 8.0 11.3 0.00 0.00 0.00 80 1017.9
20260906180359 16 270 6.4 9.7 0.00 0.00 0.00 80 1018.0
20260906175857 16 270 8.0 11.3 0.00 0.00 0.00 80 1018.0
20260906175426 16 246 6.4 8.0 0.00 0.00 0.00 79 1018.2
20260906175352 16 265 8.0 9.7 0.00 0.00 0.00 78 1018.0
20260906174851 17 270 8.0 11.3 0.00 0.00 0.00 78 1018.1
20260906174429 16 270 6.4 9.7 0.00 0.00 0.00 79 1018.3
20260906174350 16 270 4.8 9.7 0.00 0.00 0.00 78 1018.1
20260906173845 16 275 6.4 8.0 0.00 0.00 0.00 79 1018.2
20260906173430 16 251 6.4 9.7 0.00 0.00 0.00 78 1018.5
20260906173341 16 242 8.0 12.9 0.00 0.00 0.00 79 1018.4
20260906172840 16 255 8.0 11.3 0.00 0.00 0.00 79 1018.4
20260906172427 16 270 6.4 11.3 0.00 0.00 0.00 79 1018.5
20260906172337 16 253 8.0 14.5 0.00 0.00 0.00 79 1018.2
20260906171832 16 269 8.0 11.3 0.00 0.00 0.00 78 1018.2
20260906171327 16 254 8.0 9.7 0.00 0.00 0.00 78 1018.5
20260906170822 16 270 4.8 6.4 0.00 0.00 0.00 79 1018.2
20260906170317 16 287 3.2 6.4 0.00 0.00 0.00 79 1018.4
20260906165814 16 237 8.0 11.3 0.00 0.00 0.00 80 1018.4
20260906165308 16 247 8.0 11.3 0.00 0.00 0.00 80 1018.4
20260906164808 16 256 6.4 11.3 0.00 0.00 0.00 81 1018.4
20260906164327 16 220 8.0 11.3 0.00 0.00 0.00 80 1018.6
20260906164302 16 247 8.0 14.5 0.00 0.00 0.00 80 1018.4
20260906163758 16 229 11.3 14.5 0.00 0.00 0.00 79 1018.4
20260906163327 16 229 9.7 12.9 0.00 0.00 0.00 80 1018.7
20260906163254 16 240 8.0 12.9 0.00 0.00 0.00 80 1018.8
20260906162751 16 260 6.4 9.7 0.00 0.00 0.00 80 1018.7
20260906162425 16 246 6.4 8.0 0.00 0.00 0.00 79 1018.7
20260906162251 16 270 4.8 6.4 0.00 0.00 0.00 80 1018.6
20260906161746 16 270 4.8 8.0 0.00 0.00 0.00 80 1018.7
20260906161427 16 292 0.0 1.6 0.00 0.00 0.00 81 1018.8
20260906161245 16 267 3.2 6.4 0.00 0.00 0.00 80 1018.7
20260906160744 16 262 6.4 8.0 0.00 0.00 0.00 82 1018.7
20260906160428 15 225 3.2 3.2 0.00 0.00 0.00 82 1018.8
20260906160328 15 225 3.2 6.4 0.00 0.00 0.00 81 1018.8
20260906160243 16 220 4.8 8.0 0.00 0.00 0.00 82 1018.7
20260906155741 15 270 3.2 8.0 0.00 0.00 0.00 83 1018.8
20260906155327 15 253 4.8 6.4 0.00 0.00 0.00 82 1018.9
20260906155236 15 252 6.4 8.0 0.00 0.00 0.00 81 1018.8
20260906154732 15 247 4.8 6.4 0.00 0.00 0.00 82 1019.0
20260906154328 15 239 6.4 11.3 0.00 0.00 0.00 82 1019.2
20260906154227 16 241 4.8 8.0 0.00 0.00 0.00 83 1019.0
20260906153725 16 247 1.6 3.2 0.00 0.00 0.00 84 1018.9
20260906153220 15 236 3.2 4.8 0.00 0.00 0.00 85 1019.2
20260906152715 15 292 3.2 6.4 0.00 0.00 0.00 87 1019.2
20260906152425 14 270 3.2 6.4 0.00 0.00 0.00 87 1019.3
20260906152327 14 270 3.2 4.8 0.00 0.00 0.00 87 1019.2
20260906152210 14 261 6.4 9.7 0.00 0.00 0.00 87 1019.1
20260906151704 14 247 4.8 6.4 0.00 0.00 0.00 88 1019.2
20260906151327 14 247 4.8 8.0 0.00 0.00 0.00 89 1019.2
20260906151200 14 245 4.8 6.4 0.00 0.00 0.00 89 1019.1
20260906150655 13 22 0.0 1.6 0.00 0.00 0.00 90 1019.0
20260906150327 13 22 0.0 1.6 0.00 0.00 0.00 90 1019.1
20260906150150 13 22 3.2 4.8 0.00 0.00 0.00 90 1019.0
20260906145649 13 1 4.8 6.4 0.00 0.00 0.00 92 1018.9
20260906145328 13 355 4.8 6.4 0.00 0.00 0.00 91 1018.9
20260906145148 13 329 4.8 8.0 0.00 0.00 0.00 92 1018.9
20260906144643 13 360 1.6 3.2 0.00 0.00 0.00 93 1019.1
20260906144327 12 360 1.6 4.8 0.00 0.00 0.00 93 1019.3
20260906144138 12 332 3.2 6.4 0.00 0.00 0.00 93 1019.2
20260906143637 12 271 3.2 4.8 0.00 0.00 0.00 92 1019.2
20260906143327 12 315 0.0 1.6 0.00 0.00 0.00 92 1019.3
20260906143135 12 360 0.0 1.6 0.00 0.00 0.00 94 1019.2
20260906142634 12 22 0.0 0.0 0.00 0.00 0.00 94 1019.2
20260906142328 12 22 0.0 1.6 0.00 0.00 0.00 94 1019.4
20260906142129 12 22 3.2 3.2 0.00 0.00 0.00 94 1019.1
20260906141628 12 22 4.8 6.4 0.00 0.00 0.00 94 1018.9
20260906141329 12 4 3.2 4.8 0.00 0.00 0.00 94 1019.0
20260906141124 12 352 4.8 6.4 0.00 0.00 0.00 95 1018.8
20260906140622 12 225 0.0 0.0 0.00 0.00 0.00 94 1018.9
20260906140328 11 225 0.0 1.6 0.00 0.00 0.00 95 1019.0
20260906140227 11 225 1.6 3.2 0.00 0.00 0.00 95 1019.1
20260906140118 11 225 3.2 4.8 0.00 0.00 0.00 95 1019.0
20260906135614 11 225 4.8 6.4 0.00 0.00 0.00 95 1019.1
20260906135226 11 225 3.2 4.8 0.00 0.00 0.00 95 1019.1
20260906135128 11 225 3.2 4.8 0.00 0.00 0.00 95 1019.1
20260906135111 11 225 4.8 4.8 0.00 0.00 0.00 95 1018.9
20260906134606 11 225 3.2 4.8 0.00 0.00 0.00 95 1019.2
20260906134127 10 225 1.6 3.2 0.00 0.00 0.00 95 1019.3
20260906134101 11 225 3.2 6.4 0.00 0.00 0.00 95 1019.2
20260906133556 11 202 4.8 6.4 0.00 0.00 0.00 95 1019.2
20260906133128 10 225 4.8 8.0 0.00 0.00 0.00 95 1019.2
20260906133051 10 225 4.8 6.4 0.00 0.00 0.00 95 1019.1
20260906132546 10 225 4.8 8.0 0.00 0.00 0.00 95 1019.0
20260906132128 10 186 1.6 3.2 0.00 0.00 0.00 95 1019.0
20260906132042 10 180 4.8 6.4 0.00 0.00 0.00 94 1018.8
20260906131537 10 225 3.2 4.8 0.00 0.00 0.00 95 1018.8
20260906131128 10 225 4.8 6.4 0.00 0.00 0.00 94 1018.8
20260906131032 10 225 4.8 6.4 0.00 0.00 0.00 94 1018.6
20260906130532 10 225 6.4 6.4 0.00 0.00 0.00 95 1018.8
20260906130128 10 225 6.4 8.0 0.00 0.00 0.00 95 1018.9
20260906130027 10 225 6.4 8.0 0.00 0.00 0.00 94 1018.8
20260906125524 10 210 6.4 9.7 0.00 0.00 0.00 94 1018.7
20260906125128 10 187 6.4 9.7 0.00 0.00 0.00 94 1018.6
20260906125019 10 184 6.4 11.3 0.00 0.00 0.00 94 1018.6
20260906124514 10 180 3.2 6.4 0.00 0.00 0.00 94 1018.4
20260906124226 9 180 4.8 4.8 0.00 0.00 0.00 94 1018.5
20260906124130 9 180 4.8 4.8 0.00 0.00 0.00 94 1018.4
20260906124009 9 149 6.4 8.0 0.00 0.00 0.00 94 1018.2
20260906123508 9 135 6.4 8.0 0.00 0.00 0.00 94 1018.2
20260906123129 10 142 8.0 9.7 0.00 0.00 0.00 94 1018.4
20260906123003 10 138 6.4 8.0 0.00 0.00 0.00 94 1018.2
20260906122457 10 45 11.3 12.9 0.00 0.00 0.00 94 1018.2
20260906122129 10 67 9.7 11.3 0.00 0.00 0.00 94 1018.3
20260906121954 10 67 9.7 11.3 0.00 0.00 0.00 94 1018.1
20260906121450 10 90 11.3 12.9 0.00 0.00 0.00 94 1018.0
20260906121227 10 90 8.0 9.7 0.00 0.00 0.00 94 1018.2
20260906120946 10 90 8.0 9.7 0.00 0.00 0.00 94 1018.0
20260906120441 10 90 8.0 9.7 0.00 0.00 0.00 93 1018.0
20260906115937 10 90 11.3 12.9 0.00 0.00 0.00 94 1018.0
20260906115433 10 90 9.7 12.9 0.00 0.00 0.00 94 1018.2
20260906114932 10 90 8.0 11.3 0.00 0.00 0.00 92 1018.2
20260906114427 10 67 12.9 12.9 0.00 0.00 0.00 93 1018.4
20260906114227 10 67 11.3 11.3 0.00 0.00 0.00 93 1018.6
20260906113923 11 45 11.3 12.9 0.00 0.00 0.00 93 1018.2
20260906113421 11 45 12.9 14.5 0.00 0.00 0.00 94 1018.2
20260906113227 10 45 11.3 14.5 0.00 0.00 0.00 94 1018.5
20260906112917 11 19 11.3 12.9 0.00 0.00 0.00 93 1018.4
20260906112413 11 360 9.7 11.3 0.00 0.00 0.00 93 1018.6
20260906112227 10 360 9.7 11.3 0.00 0.00 0.00 93 1018.7
20260906111908 11 360 9.7 11.3 0.00 0.00 0.00 93 1018.7
20260906111407 11 360 11.3 11.3 0.00 0.00 0.00 93 1018.9
20260906111227 10 360 9.7 9.7 0.00 0.00 0.00 93 1018.9
20260906110903 11 360 11.3 11.3 0.00 0.00 0.00 93 1018.8
20260906110358 11 360 11.3 12.9 0.00 0.00 0.00 92 1018.9
20260906105857 11 360 9.7 11.3 0.00 0.00 0.00 92 1018.8
20260906105353 11 350 9.7 12.9 0.00 0.00 0.00 91 1018.8
20260906105227 11 337 8.0 11.3 0.00 0.00 0.00 92 1019.0
20260906105128 11 337 8.0 9.7 0.00 0.00 0.00 92 1019.0
20260906104848 11 347 9.7 11.3 0.00 0.00 0.00 91 1018.8
20260906104347 11 360 14.5 17.7 0.00 0.00 0.00 91 1018.6
20260906104227 11 4 14.5 17.7 0.00 0.00 0.00 91 1018.7
20260906103846 11 360 11.3 12.9 0.00 0.00 0.00 91 1018.6
20260906103344 11 360 12.9 16.1 0.00 0.00 0.00 91 1018.7
20260906103229 11 360 11.3 16.1 0.00 0.00 0.00 91 1018.8
20260906102840 11 22 9.7 11.3 0.00 0.00 0.00 91 1018.8
20260906102339 11 41 11.3 14.5 0.00 0.00 0.00 91 1018.6
20260906102327 10 41 11.3 14.5 0.00 0.00 0.00 91 1018.7
20260906102227 10 37 9.7 14.5 0.00 0.00 0.00 91 1018.7
20260906101834 11 18 9.7 12.9 0.00 0.00 0.00 90 1018.7
20260906101329 11 22 8.0 11.3 0.00 0.00 0.00 90 1018.6
20260906101226 10 22 9.7 11.3 0.00 0.00 0.00 90 1018.8
20260906100825 11 360 9.7 9.7 0.00 0.00 0.00 89 1018.4
20260906100324 11 349 8.0 11.3 0.00 0.00 0.00 88 1018.4
20260906100227 10 349 8.0 9.7 0.00 0.00 0.00 88 1018.6
20260906095819 11 360 8.0 11.3 0.00 0.00 0.00 87 1018.6
20260906095315 11 337 8.0 11.3 0.00 0.00 0.00 86 1018.4
20260906095227 11 337 8.0 11.3 0.00 0.00 0.00 86 1018.5
20260906094814 11 356 8.0 9.7 0.00 0.00 0.00 84 1018.6
20260906094326 11 360 6.4 8.0 0.00 0.00 0.00 85 1018.5
20260906094309 12 360 8.0 11.3 0.00 0.00 0.00 85 1018.4
20260906094227 11 360 8.0 9.7 0.00 0.00 0.00 85 1018.6
20260906093806 12 45 3.2 3.2 0.00 0.00 0.00 85 1018.4
20260906093301 12 45 3.2 3.2 0.00 0.00 0.00 85 1018.2
20260906093229 12 45 1.6 3.2 0.00 0.00 0.00 85 1018.5
20260906093127 12 45 3.2 3.2 0.00 0.00 0.00 85 1018.6
20260906092755 12 45 4.8 6.4 0.00 0.00 0.00 84 1018.2
20260906092250 12 45 6.4 6.4 0.00 0.00 0.00 84 1018.2
20260906092128 12 29 4.8 4.8 0.00 0.00 0.00 84 1018.4
20260906092026 12 22 4.8 6.4 0.00 0.00 0.00 84 1018.5
20260906091746 12 22 4.8 4.8 0.00 0.00 0.00 84 1018.2
20260906091242 12 360 1.6 3.2 0.00 0.00 0.00 84 1018.2
20260906091027 12 360 1.6 3.2 0.00 0.00 0.00 84 1018.4
20260906090738 12 360 0.0 0.0 0.00 0.00 0.00 84 1018.2
20260906090237 12 360 0.0 0.0 0.00 0.00 0.00 84 1018.2
20260906090028 12 360 0.0 0.0 0.00 0.00 0.00 83 1018.5
20260906085737 12 360 0.0 0.0 0.00 0.00 0.00 84 1018.2
20260906085236 12 360 1.6 1.6 0.00 0.00 0.00 84 1018.4
20260906084730 12 360 1.6 4.8 0.00 0.00 0.00 83 1018.4
20260906084225 12 360 0.0 0.0 0.00 0.00 0.00 83 1018.7
20260906084129 12 360 0.0 0.0 0.00 0.00 0.00 83 1018.8
20260906083719 12 360 0.0 0.0 0.00 0.00 0.00 82 1018.6
20260906083227 12 360 0.0 1.6 0.00 0.00 0.00 82 1018.8
20260906083215 12 360 0.0 1.6 0.00 0.00 0.00 81 1018.7
20260906082710 13 360 0.0 0.0 0.00 0.00 0.00 80 1018.8
20260906082226 12 360 0.0 0.0 0.00 0.00 0.00 81 1018.9
20260906082200 13 360 0.0 0.0 0.00 0.00 0.00 81 1018.8
20260906081655 13 360 0.0 0.0 0.00 0.00 0.00 81 1019.0
20260906081229 13 22 0.0 0.0 0.00 0.00 0.00 80 1019.2
20260906081150 13 22 0.0 0.0 0.00 0.00 0.00 80 1019.0
20260906080647 13 22 0.0 0.0 0.00 0.00 0.00 80 1019.1
20260906080227 13 22 1.6 3.2 0.00 0.00 0.00 80 1019.2
20260906080143 13 22 3.2 3.2 0.00 0.00 0.00 80 1019.1
20260906075642 13 22 3.2 4.8 0.00 0.00 0.00 80 1019.1
20260906075228 13 22 1.6 1.6 0.00 0.00 0.00 79 1019.5
20260906075137 13 22 0.0 0.0 0.00 0.00 0.00 79 1019.2
20260906074632 13 22 4.8 4.8 0.00 0.00 0.00 79 1019.3
20260906074226 13 360 4.8 4.8 0.00 0.00 0.00 79 1019.6
20260906074131 13 360 4.8 6.4 0.00 0.00 0.00 79 1019.5
20260906073626 13 360 8.0 9.7 0.00 0.00 0.00 78 1019.5
20260906073227 13 360 6.4 6.4 0.00 0.00 0.00 78 1019.7
20260906073122 13 360 6.4 6.4 0.00 0.00 0.00 78 1019.5
20260906072617 13 360 4.8 4.8 0.00 0.00 0.00 77 1019.6
20260906072326 13 360 4.8 6.4 0.00 0.00 0.00 77 1019.8
20260906072228 13 360 4.8 6.4 0.00 0.00 0.00 77 1019.8
20260906072112 13 360 8.0 8.0 0.00 0.00 0.00 77 1019.6
20260906071608 14 360 4.8 6.4 0.00 0.00 0.00 77 1019.7
20260906071229 13 360 1.6 4.8 0.00 0.00 0.00 76 1019.9
20260906071103 14 360 4.8 4.8 0.00 0.00 0.00 76 1019.7
20260906070600 14 45 6.4 8.0 0.00 0.00 0.00 76 1019.8
20260906070325 13 45 4.8 6.4 0.00 0.00 0.00 76 1020.0
20260906070055 14 13 6.4 8.0 0.00 0.00 0.00 76 1019.8
20260906065554 14 45 8.0 11.3 0.00 0.00 0.00 75 1019.8
20260906065326 13 28 8.0 11.3 0.00 0.00 0.00 75 1020.0
20260906065227 13 22 8.0 12.9 0.00 0.00 0.00 75 1020.1
20260906065050 14 360 9.7 12.9 0.00 0.00 0.00 75 1019.8
20260906064546 14 12 14.5 17.7 0.00 0.00 0.00 74 1019.7
20260906064228 13 360 20.9 27.4 0.00 0.00 0.00 75 1019.8
20260906064041 14 359 17.7 22.5 0.00 0.00 0.00 76 1019.8
20260906063536 14 16 8.0 12.9 0.00 0.00 0.00 76 1020.0
20260906063228 13 360 4.8 6.4 0.00 0.00 0.00 76 1020.0
20260906063032 14 360 9.7 12.9 0.00 0.00 0.00 76 1019.9
20260906062527 14 359 9.7 16.1 0.00 0.00 0.00 75 1019.8
20260906062227 13 348 9.7 16.1 0.00 0.00 0.00 76 1019.9
20260906062021 14 356 16.1 22.5 0.00 0.00 0.00 76 1019.8
20260906061518 14 337 12.9 16.1 0.00 0.00 0.00 76 1019.8
20260906061016 14 351 12.9 14.5 0.00 0.00 0.00 76 1019.8
20260906060513 14 335 11.3 14.5 0.00 0.00 0.00 76 1019.8
20260906060227 14 342 9.7 11.3 0.00 0.00 0.00 75 1019.9
20260906060010 14 333 9.7 14.5 0.00 0.00 0.00 76 1019.7
20260906055505 14 336 14.5 19.3 0.00 0.00 0.00 76 1019.7
20260906055232 14 339 14.5 19.3 0.00 0.00 0.00 76 1019.7
20260906055000 14 340 17.7 19.3 0.00 0.00 0.00 76 1019.7
20260906054455 14 353 8.0 12.9 0.00 0.00 0.00 76 1019.6
20260906053950 15 344 12.9 17.7 0.00 0.00 0.00 75 1019.7
20260906053447 15 333 8.0 14.5 0.00 0.00 0.00 75 1019.6
20260906053330 15 337 4.8 8.0 0.00 0.00 0.00 75 1019.7
20260906052942 15 337 1.6 1.6 0.00 0.00 0.00 75 1019.7
20260906052438 15 337 0.0 0.0 0.00 0.00 0.00 73 1019.7
20260906052429 15 337 0.0 0.0 0.00 0.00 0.00 73 1019.8
20260906051935 15 360 0.0 0.0 0.00 0.00 0.00 74 1019.7
20260906051430 15 360 0.0 1.6 0.00 0.00 0.00 74 1019.6
20260906051331 15 360 0.0 1.6 0.00 0.00 0.00 74 1019.7
20260906050926 15 360 3.2 4.8 0.00 0.00 0.00 74 1019.6
20260906050425 15 45 0.0 0.0 0.00 0.00 0.00 74 1019.6
20260906050332 15 45 0.0 0.0 0.00 0.00 0.00 74 1019.7
20260906045925 15 45 4.8 6.4 0.00 0.00 0.00 74 1019.5
20260906045423 15 22 6.4 8.0 0.00 0.00 0.00 74 1019.3
20260906044919 15 13 9.7 11.3 0.00 0.00 0.00 74 1019.3
20260906044430 15 22 3.2 6.4 0.00 0.00 0.00 74 1019.5
20260906044414 15 22 6.4 8.0 0.00 0.00 0.00 74 1019.2
20260906044332 15 22 4.8 8.0 0.00 0.00 0.00 74 1019.4
20260906043910 15 22 3.2 6.4 0.00 0.00 0.00 74 1019.5
20260906043406 15 6 11.3 14.5 0.00 0.00 0.00 74 1019.2
20260906043333 15 6 9.7 12.9 0.00 0.00 0.00 74 1019.4
20260906043230 15 16 9.7 11.3 0.00 0.00 0.00 74 1019.4
20260906042901 15 7 9.7 11.3 0.00 0.00 0.00 74 1019.1
20260906042359 15 46 8.0 9.7 0.00 0.00 0.00 74 1019.2
20260906042130 15 67 4.8 8.0 0.00 0.00 0.00 74 1019.2
20260906041854 15 56 6.4 9.7 0.00 0.00 0.00 74 1019.0
20260906041350 15 45 9.7 14.5 0.00 0.00 0.00 72 1018.9
20260906041131 15 35 14.5 17.7 0.00 0.00 0.00 73 1019.2
20260906040845 15 45 14.5 17.7 0.00 0.00 0.00 72 1019.0
20260906040340 15 32 14.5 17.7 0.00 0.00 0.00 72 1019.1
20260906035836 15 43 14.5 17.7 0.00 0.00 0.00 72 1019.0
20260906035331 16 35 16.1 20.9 0.00 0.00 0.00 71 1019.0
20260906034826 16 24 17.7 20.9 0.00 0.00 0.00 70 1019.0
20260906034321 16 23 20.9 24.1 0.00 0.00 0.00 70 1019.0
20260906034032 16 22 20.9 27.4 0.00 0.00 0.00 70 1018.9
20260906033817 16 16 22.5 29.0 0.00 0.00 0.00 69 1018.7
20260906033316 16 21 22.5 29.0 0.00 0.00 0.00 69 1018.9
20260906033032 16 20 24.1 29.0 0.00 0.00 0.00 68 1019.0
20260906032812 16 34 25.7 29.0 0.00 0.00 0.00 68 1018.7
20260906032308 16 39 25.7 30.6 0.00 0.00 0.00 67 1018.7
20260906032031 16 35 20.9 25.7 0.00 0.00 0.00 67 1018.8
20260906031802 16 25 29.0 35.4 0.00 0.00 0.00 66 1018.7
20260906031253 16 29 24.1 30.6 0.00 0.00 0.00 65 1018.8
20260906031031 16 26 22.5 29.0 0.00 0.00 0.00 64 1018.8
20260906030753 16 24 32.2 35.4 0.00 0.00 0.00 64 1018.6
20260906030248 17 18 27.4 32.2 0.00 0.00 0.00 62 1018.6
20260906025747 17 28 30.6 40.2 0.00 0.00 0.00 61 1018.5
20260906025242 17 36 27.4 33.8 0.00 0.00 0.00 59 1018.6
20260906025032 17 25 30.6 38.6 0.00 0.00 0.00 59 1018.4
20260906024741 17 30 27.4 35.4 0.00 0.00 0.00 57 1018.5
20260906024240 17 24 24.1 30.6 0.00 0.00 0.00 56 1018.4
20260906024033 17 17 24.1 30.6 0.00 0.00 0.00 55 1018.5
20260906023735 18 22 24.1 33.8 0.00 0.00 0.00 54 1018.6
20260906023231 18 24 30.6 37.0 0.00 0.00 0.00 53 1018.2
20260906023031 18 27 27.4 33.8 0.00 0.00 0.00 52 1018.4
20260906022726 18 28 29.0 38.6 0.00 0.00 0.00 51 1018.2
20260906022221 18 23 25.7 29.0 0.00 0.00 0.00 48 1018.1
20260906022032 18 26 25.7 33.8 0.00 0.00 0.00 48 1018.3
20260906021930 18 21 27.4 32.2 0.00 0.00 0.00 48 1018.1
20260906021717 18 23 25.7 33.8 0.00 0.00 0.00 46 1018.1
20260906021216 18 45 9.7 11.3 0.00 0.00 0.00 46 1018.4
20260906020931 18 56 9.7 11.3 0.00 0.00 0.00 46 1018.3
20260906020711 19 67 11.3 12.9 0.00 0.00 0.00 46 1018.1
20260906020206 19 63 12.9 14.5 0.00 0.00 0.00 45 1018.0
20260906015932 19 45 11.3 12.9 0.00 0.00 0.00 44 1018.2
20260906015700 19 45 12.9 12.9 0.00 0.00 0.00 44 1018.0
20260906015158 20 45 14.5 16.1 0.00 0.00 0.00 44 1018.0
20260906014653 20 45 14.5 16.1 0.00 0.00 0.00 43 1017.9
20260906014149 20 45 14.5 17.7 0.00 0.00 0.00 42 1017.8
20260906014032 20 51 14.5 17.7 0.00 0.00 0.00 42 1018.1
20260906013645 21 58 14.5 17.7 0.00 0.00 0.00 41 1017.9
20260906013140 21 46 14.5 17.7 0.00 0.00 0.00 40 1017.8
20260906013129 21 46 14.5 16.1 0.00 0.00 0.00 40 1017.9
20260906012639 21 46 19.3 20.9 0.00 0.00 0.00 40 1017.6
20260906012134 22 46 19.3 25.7 0.00 0.00 0.00 40 1017.5
20260906012130 21 46 19.3 24.1 0.00 0.00 0.00 40 1017.7
20260906012031 21 46 22.5 29.0 0.00 0.00 0.00 39 1017.7
20260906011630 22 47 17.7 22.5 0.00 0.00 0.00 39 1017.6
20260906011124 22 48 20.9 24.1 0.00 0.00 0.00 38 1017.5
20260906011030 22 48 20.9 24.1 0.00 0.00 0.00 38 1017.7
20260906010620 22 51 22.5 27.4 0.00 0.00 0.00 38 1017.5
20260906010129 22 48 22.5 29.0 0.00 0.00 0.00 37 1017.8
20260906010116 22 46 24.1 30.6 0.00 0.00 0.00 37 1017.5
20260906005610 23 48 24.1 30.6 0.00 0.00 0.00 38 1017.5
20260906005132 22 46 24.1 30.6 0.00 0.00 0.00 38 1017.8
20260906005109 23 45 27.4 30.6 0.00 0.00 0.00 38 1017.5
20260906004608 23 46 22.5 29.0 0.00 0.00 0.00 37 1017.5
20260906004103 23 51 25.7 32.2 0.00 0.00 0.00 37 1017.5
20260906004032 23 51 25.7 32.2 0.00 0.00 0.00 37 1017.7
20260906003559 23 47 24.1 30.6 0.00 0.00 0.00 37 1017.5
20260906003130 23 47 24.1 29.0 0.00 0.00 0.00 37 1017.8
20260906003054 23 48 24.1 29.0 0.00 0.00 0.00 37 1017.6
20260906002549 23 51 22.5 29.0 0.00 0.00 0.00 37 1017.7
20260906002132 23 47 22.5 27.4 0.00 0.00 0.00 37 1017.9
20260906002043 23 46 20.9 25.7 0.00 0.00 0.00 36 1017.8
20260906001539 23 45 29.0 32.2 0.00 0.00 0.00 36 1017.6
20260906001231 23 43 27.4 30.6 0.00 0.00 0.00 36 1017.9
20260906001033 24 45 24.1 29.0 0.00 0.00 0.00 35 1017.6
20260906000529 24 30 24.1 27.4 0.00 0.00 0.00 35 1017.7
20260906000233 23 23 20.9 22.5 0.00 0.00 0.00 35 1018.0
20260906000024 24 42 25.7 29.0 0.00 0.00 0.00 35 1017.7
20260905235518 24 52 20.9 24.1 0.00 0.00 0.00 34 1017.8
20260905235231 24 46 16.1 22.5 0.00 0.00 0.00 34 1017.9
20260905235013 24 34 17.7 22.5 0.00 0.00 0.00 33 1017.7
20260905234508 24 15 16.1 17.7 0.00 0.00 0.00 33 1017.8
20260905234231 23 30 19.3 25.7 0.00 0.00 0.00 32 1017.9
20260905234002 24 43 17.7 19.3 0.00 0.00 0.00 33 1017.6
20260905233458 24 49 14.5 20.9 0.00 0.00 0.00 33 1017.6
20260905233231 24 45 17.7 20.9 0.00 0.00 0.00 33 1017.7
20260905233132 24 44 19.3 22.5 0.00 0.00 0.00 33 1017.8
20260905232956 24 56 12.9 24.1 0.00 0.00 0.00 32 1017.7
20260905232453 24 46 16.1 19.3 0.00 0.00 0.00 33 1017.6
20260905232131 24 49 9.7 12.9 0.00 0.00 0.00 33 1017.8
20260905231949 24 45 16.1 19.3 0.00 0.00 0.00 33 1017.6
20260905231444 24 48 19.3 22.5 0.00 0.00 0.00 33 1017.5
20260905231131 24 36 19.3 25.7 0.00 0.00 0.00 32 1017.6
20260905230940 24 45 24.1 30.6 0.00 0.00 0.00 32 1017.5
20260905230438 24 40 20.9 25.7 0.00 0.00 0.00 33 1017.6
20260905230131 24 24 29.0 32.2 0.00 0.00 0.00 32 1017.6